User: anonymous   Login
Location: Unspecified
(0.0000°N, 0.0000°E)
Time: 22:43:14
(UTC+00:00)
Language:

Cosmos 2058 - Orbit

View from above orbital plane
View from above orbital plane
View from above satellite
View from above satellite

Ground track
Ground track

The orbit data is extracted from the following two-line orbital elements,

1 20465U 90010A   19295.10865088  .00000171  00000-0  12214-4 0  9992
2 20465  82.4877 143.6563 0014097 289.8778  70.0925 14.97919053613600
Epoch (UTC): 22 October 2019 02:36:27
Eccentricity: 0.0014097
inclination: 82.4877°
perigee height: 563 km
apogee height: 583 km
right ascension of ascending node: 143.6563°
argument of perigee: 289.8778°
revolutions per day: 14.97919053
mean anomaly at epoch: 70.0925°
orbit number at epoch: 61360

The dashed part of the orbit path shows where the satellite is in the earth's shadow,  

DLR